Regional Weather Roundup
Issued by NWS

Home | Current Version | Previous Version | Text Only | Print | Product List | Glossary Off
Versions: 1 2 3 4 5 6 7 8 9 10 11 12 13 14 15 16 17 18 19 20 21 22 23 24 25 26 27 28 29 30 31 32 33 34 35 36 37 38 39 40 41 42 43 44 45 46 47 48 49 50

000
ASUS43 KLOT 190658
RWRIL

ILLINOIS REGIONAL WEATHER ROUNDUP
NATIONAL WEATHER SERVICE CHICAGO/ROMEOVILLE IL
200 AM CDT FRI SEP 19 2014

NOTE: "FAIR" INDICATES FEW OR NO CLOUDS BELOW 12,000 FEET WITH NO
SIGNIFICANT WEATHER AND/OR OBSTRUCTIONS TO VISIBILITY.

* THESE STATIONS ARE NOT UNDER NWS QUALITY CONTROL. THEY ALSO MAY NOT
  REPORT WEATHER SUCH AS PRECIPITATION OR FOG.

ILZ001-002-007-009-015-016-024-190800-
NORTHWEST ILLINOIS

CITY           SKY/WX    TMP DP  RH WIND       PRES   REMARKS
MOLINE         CLEAR     53  49  86 E7        30.11F
$$

ILZ003-004-008-010-011-017-018-190800-
NORTH CENTRAL ILLINOIS

CITY           SKY/WX    TMP DP  RH WIND       PRES   REMARKS
ROCKFORD       NOT AVBL
$$

ILZ005-006-012>014-019>023-190800-
NORTHEAST ILLINOIS

CITY           SKY/WX    TMP DP  RH WIND       PRES   REMARKS
CHICAGO-OHARE  CLEAR     56  54  93 N3        30.16S
CHICAGO-MIDWAY CLEAR     61  58  90 CALM      30.16R
AURORA         FOG       52  50  93 CALM      30.16S VSB 3/4
WAUKEGAN       CLEAR     54  54 100 CALM      30.16F FOG
DUPAGE AIRPORT PTCLDY    56  54  93 E6        30.15S FOG
WHEELING       CLEAR     53  51  93 CALM      30.18S
NORTHERLY ISL    N/A     61  55  81 SE5         N/A
$$

LMZ740>746-190800-
SOUTHERN LAKE MICHIGAN

STATION/POSITION SKY/WX   TEMP    WIND        PRES    VSBY  WAVE
                          AIR SEA DIR/SP/G                  HT/PER
                          (F)     (DEG/KT/KT) (MB)    (MI)  (FT/S)
SOUTHERN BUOY              61 62  120/ 14/ 16 1021.8F         2/ 5
WAUKEGAN HARBOR            62      80/  5/  6   N/A
HARRISON CRIB              63      90/  9/ 10   N/A
BURNHAM HARBOR             62     120/  8       N/A
CALUMET HARBOR             62     110/  7/ 11 1020.0F
MICHIGAN CITY              58      90/  9/ 14   N/A
MICHIGAN CITY 6N           61 65  120/ 14/ 17   N/A           2/ 2
ST. JOSEPH                 59 66  110/ 14/ 17   N/A           2/ 2
$$

ILZ025>027-034>036-040-047-049-050-058-095>099-190800-
WEST-CENTRAL ILLINOIS

CITY           SKY/WX    TMP DP  RH WIND       PRES   REMARKS
$$

ILZ028>032-037-038-041>044-048-051>054-059>061-190800-
CENTRAL ILLINOIS

CITY           SKY/WX    TMP DP  RH WIND       PRES   REMARKS
PEORIA         NOT AVBL
SPRINGFIELD    CLEAR     53  48  83 E3        30.11S
TAYLORVILLE    NOT AVBL
$$

ILZ033-039-045-046-055>057-062-063-190800-
EAST-CENTRAL ILLINOIS

CITY           SKY/WX    TMP DP  RH WIND       PRES   REMARKS
CHAMPAIGN      CLEAR     52  48  86 E7        30.14R
$$

ILZ079-100>102-190800-
SOUTHWEST ILLINOIS

CITY           SKY/WX    TMP DP  RH WIND       PRES   REMARKS
CAHOKIA*       CLEAR     54  53  97 CALM      30.08S FOG
$$

ILZ064>066-069>071-074>076-080>082-084>086-088>090-092>094-190800-
SOUTH-CENTRAL ILLINOIS

CITY           SKY/WX    TMP DP  RH WIND       PRES   REMARKS
CARBONDALE     CLEAR     52  51  97 CALM      30.08R FOG
$$

ILZ067-068-072-073-078-083-087-091-190800-
SOUTHEAST ILLINOIS

CITY           SKY/WX    TMP DP  RH WIND       PRES   REMARKS
LAWRENCEVILLE  CLEAR     53  51  93 NE5       30.11S
$$

ABBREVIATIONS USED IN REMARKS
   TC - TEMPERATURE IN CELSIUS
  WCI - WIND CHILL INDEX
   HX - HEAT INDEX
  VSB - VISIBILITY
$$




USA.gov is the U.S. government's official web portal to all federal, state and local government web resources and services.